TimePDT,TemperatureF,Dew PointF,Humidity,Sea Level PressureIn,VisibilityMPH,Wind Direction,Wind SpeedMPH,Gust SpeedMPH,PrecipitationIn,Events,Conditions,WindDirDegrees,DateUTC
12:51 AM,54.0,48.9,83,30.13,10.0,East,3.5,-,N/A,,Clear,80,2013-04-26 07:51:00
1:51 AM,54.0,46.9,77,30.12,10.0,Calm,Calm,-,N/A,,Clear,0,2013-04-26 08:51:00
2:51 AM,53.1,46.9,80,30.12,10.0,East,3.5,-,N/A,,Clear,80,2013-04-26 09:51:00
3:51 AM,52.0,46.0,80,30.12,10.0,ENE,5.8,-,N/A,,Clear,60,2013-04-26 10:51:00
4:51 AM,53.1,46.0,77,30.12,10.0,NE,6.9,-,N/A,,Clear,50,2013-04-26 11:51:00
5:51 AM,53.1,46.0,77,30.12,10.0,Calm,Calm,-,N/A,,Clear,0,2013-04-26 12:51:00
6:51 AM,53.1,46.0,77,30.14,10.0,Calm,Calm,-,N/A,,Clear,0,2013-04-26 13:51:00
7:51 AM,57.0,46.0,67,30.15,10.0,NE,5.8,-,N/A,,Clear,50,2013-04-26 14:51:00
8:51 AM,61.0,46.9,60,30.15,10.0,Calm,Calm,-,N/A,,Clear,0,2013-04-26 15:51:00
9:51 AM,62.1,52.0,70,30.16,10.0,West,8.1,-,N/A,,Clear,280,2013-04-26 16:51:00
10:51 AM,64.0,52.0,65,30.16,10.0,West,9.2,-,N/A,,Clear,280,2013-04-26 17:51:00
11:51 AM,64.9,51.1,61,30.16,10.0,West,11.5,17.3,N/A,,Clear,260,2013-04-26 18:51:00
12:51 PM,64.0,52.0,65,30.15,10.0,WSW,12.7,-,N/A,,Clear,250,2013-04-26 19:51:00
1:51 PM,64.9,51.1,61,30.15,10.0,West,12.7,-,N/A,,Clear,270,2013-04-26 20:51:00
2:51 PM,64.9,51.1,61,30.14,10.0,West,12.7,-,N/A,,Clear,270,2013-04-26 21:51:00
3:51 PM,64.9,52.0,63,30.13,10.0,West,11.5,-,N/A,,Clear,260,2013-04-26 22:51:00
4:51 PM,62.1,53.1,72,30.12,9.0,West,15.0,-,N/A,,Clear,280,2013-04-26 23:51:00
5:51 PM,61.0,53.1,75,30.12,9.0,WNW,12.7,-,N/A,,Partly Cloudy,290,2013-04-27 00:51:00
6:51 PM,57.9,53.1,84,30.12,8.0,West,12.7,-,N/A,,Partly Cloudy,280,2013-04-27 01:51:00
7:51 PM,57.0,53.1,87,30.12,7.0,West,8.1,-,N/A,,Clear,280,2013-04-27 02:51:00
8:49 PM,55.4,53.6,94,30.13,8.0,WNW,4.6,-,N/A,,Scattered Clouds,290,2013-04-27 03:49:00
8:51 PM,55.9,53.1,90,30.13,8.0,WNW,4.6,-,N/A,,Scattered Clouds,290,2013-04-27 03:51:00
8:58 PM,55.4,53.6,94,30.13,8.0,WNW,3.5,-,N/A,,Mostly Cloudy,300,2013-04-27 03:58:00
9:51 PM,55.9,53.1,90,30.14,7.0,WNW,3.5,-,N/A,,Overcast,290,2013-04-27 04:51:00
10:08 PM,55.4,51.8,88,30.15,7.0,WNW,3.5,-,N/A,,Scattered Clouds,300,2013-04-27 05:08:00
10:51 PM,55.9,53.1,90,30.14,7.0,Calm,Calm,-,N/A,,Clear,0,2013-04-27 05:51:00
11:51 PM,57.0,53.1,87,30.14,8.0,Calm,Calm,-,N/A,,Clear,0,2013-04-27 06:51:00